Location: Ajisawe
(8.4333°N, 4.3833°E)
Time: 23:09:42
(UTC+00:00)

Vanguard 1 Rocket - Pass Details

Date: 24 April 2021
Orbit: 652 x 4224 km, 34.3° (Epoch: 10 May)

Event Time Altitude Azimuth Distance (km) Brightness Sun altitude
Exits shadow 02:28:56 10° 190° (S) 7,277 11.7 -43.1°
Reaches altitude 10° 02:29:35 10° 188° (S) 7,271 11.7 -42.9°
Maximum altitude 02:36:54 12° 171° (S) 7,271 11.8 -41.3°
Drops below altitude 10° 02:44:18 10° 154° (SSE) 7,392 12.0 -39.7°
Sets 02:57:54 0° 125° (SE) 7,923 12.5 -36.6°
